Starlink 4648

operational
NORAD ID: 53602 Int'l Des: 2022-104 Owner: SPXS Country: US Constellation: starlink
LEOCIRCULAR

Über Starlink 4648

Beschreibung wird geladen...

Live-Position

3D-Globus wird geladen...

Nächste Überflüge

Höhenverlauf

Altitude vs Time

uPlot chart will show altitude changes over time

Zweizeiliger Elementsatz

1 53602U 22104Q 25303.84365962 .00000054 00000-0 21465-4 0 9992
2 53602 53.2188 101.9626 0001341 83.8827 276.2318 15.08840073176082
Epoch: 30. Okt. 2025 • Age: 23 hours

Aktueller Status

Höhe 539.8 km
Geschwindigkeit 7.60 km/s
Subsatellitenpunkt 19.21°N, 65.56°W
Startdatum 28. Aug. 2022
Alter 3.1 years
Typ internet

Technische Details

Klassifizierung Payload
Masse 300.00 kg
Trockenmasse 290.00 kg
Gesamtmasse 300.00 kg
Länge 0.20 m
Durchmesser 2.80 m
Spannweite 9.00 m
Form Box + pan
Hersteller SPXS
Bus-Typ Starlink
Phasenstatus In Orbit
Besitzer/Staat SPXS/US

Große Konstellationen

Loading constellations...